TimeAKDT,TemperatureF,Dew PointF,Humidity,Sea Level PressureIn,VisibilityMPH,Wind Direction,Wind SpeedMPH,Gust SpeedMPH,PrecipitationIn,Events,Conditions,WindDirDegrees,DateUTC
12:55 AM,62.1,28.2,28,29.80,10.0,NNE,3.5,-,N/A,,Overcast,20,2013-05-27 08:55:00
1:55 AM,59.9,28.8,31,29.81,10.0,North,6.9,-,N/A,,Mostly Cloudy,10,2013-05-27 09:55:00
2:55 AM,57.6,29.5,34,29.82,10.0,NNE,5.8,-,N/A,,Mostly Cloudy,30,2013-05-27 10:55:00
3:55 AM,56.1,30.6,38,29.83,10.0,Variable,2.3,-,N/A,,Partly Cloudy,0,2013-05-27 11:55:00
4:55 AM,48.0,36.3,64,29.86,10.0,SSW,6.9,-,N/A,,Clear,200,2013-05-27 12:55:00
5:55 AM,45.7,36.1,69,29.86,10.0,SW,4.6,-,N/A,,Clear,230,2013-05-27 13:55:00
6:55 AM,45.1,36.7,72,29.86,10.0,South,6.9,-,N/A,,Clear,190,2013-05-27 14:55:00
7:55 AM,48.6,37.8,66,29.86,10.0,South,3.5,-,N/A,,Clear,190,2013-05-27 15:55:00
8:55 AM,52.5,37.8,57,29.86,10.0,Variable,3.5,-,N/A,,Partly Cloudy,0,2013-05-27 16:55:00
9:55 AM,51.8,37.6,58,29.87,10.0,South,5.8,-,N/A,,Clear,180,2013-05-27 17:55:00
10:55 AM,55.0,37.4,51,29.86,10.0,SSE,4.6,-,N/A,,Clear,160,2013-05-27 18:55:00
11:55 AM,59.7,37.8,44,29.86,10.0,Variable,3.5,-,N/A,,Clear,0,2013-05-27 19:55:00
12:55 PM,61.9,35.2,37,29.85,10.0,Variable,2.3,-,N/A,,Clear,0,2013-05-27 20:55:00
1:55 PM,63.9,36.0,36,29.84,10.0,Variable,5.8,-,N/A,,Scattered Clouds,0,2013-05-27 21:55:00
2:55 PM,66.6,34.9,31,29.83,10.0,SE,4.6,-,N/A,,Clear,140,2013-05-27 22:55:00
3:55 PM,66.9,35.6,31,29.82,10.0,Variable,5.8,-,N/A,,Clear,0,2013-05-27 23:55:00
4:55 PM,68.2,33.8,28,29.81,10.0,Variable,3.5,-,N/A,,Clear,0,2013-05-28 00:55:00
5:55 PM,69.1,33.8,27,29.81,10.0,Variable,6.9,-,N/A,,Clear,0,2013-05-28 01:55:00
6:55 PM,70.3,32.9,25,29.80,10.0,Variable,6.9,-,N/A,,Partly Cloudy,0,2013-05-28 02:55:00
7:55 PM,69.4,32.2,25,29.78,10.0,North,4.6,-,N/A,,Clear,350,2013-05-28 03:55:00
8:55 PM,69.1,31.8,25,29.78,10.0,NNW,6.9,-,N/A,,Clear,330,2013-05-28 04:55:00
9:55 PM,69.3,32.0,25,29.78,10.0,Variable,3.5,-,N/A,,Clear,0,2013-05-28 05:55:00
10:55 PM,67.6,31.6,26,29.78,10.0,NNW,3.5,-,N/A,,Clear,330,2013-05-28 06:55:00
11:55 PM,66.4,31.6,27,29.78,10.0,NW,8.1,-,N/A,,Clear,320,2013-05-28 07:55:00